RH
6 6 6 6 6 6 6 6 7 8 8 11 15 15 14 15 16 17 21 25 27 27 27 28 28 28 28 28 29 27 24 20 16 12 11 10 10 10 10 10 10 12 13 14 14 15 15 13 12 10 9 9 8 9 9 9 9 9 11 13 14 14 13 12 12 13 18 24 29 35 39 44 49 50 48 45 44 44 42 41 40 38 37 36 35 35 35 37 39 41 43 44 45 46 47 48 50
6 6 6 6 6 6 6 6 7 7 9 13 15 16 15 14 14 15 17 22 26 28 27 27 28 28 28 28 28 28 28 27 23 18 14 11 11 11 10 10 9 9 10 11 12 12 13 14 14 14 13 12 11 9 9 8 7 6 7 8 10 12 13 14 14 13 12 13 14 18 23 31 40 46 46 45 47 47 45 46 45 44 42 39 38 37 36 36 36 37 38 39 41 42 43 44 47
6 6 6 6 6 6 6 6 6 6 9 13 14 15 16 15 14 14 15 18 24 27 28 28 28 28 29 28 27 28 28 28 27 24 19 15 12 11 11 10 10 10 9 9 9 10 10 11 12 12 13 14 13 13 11 10 8 8 7 7 7 7 8 10 12 14 15 16 14 14 15 19 26 32 37 39 43 45 46 48 48 48 47 44 42 41 40 38 37 37 36 36 36 36 38 39 40
6 6 6 6 6 6 6 6 6 6 8 11 13 14 15 15 15 15 15 16 21 26 28 29 29 29 29 29 27 27 27 28 28 28 25 20 16 13 12 11 11 10 10 10 10 10 10 10 10 10 11 11 12 13 14 13 12 10 9 8 8 7 6 7 7 9 12 14 16 17 17 16 17 19 21 24 30 35 40 45 45 45 47 47 46 44 44 42 40 39 37 35 34 34 34 35 36
6 6 6 6 6 6 6 6 6 6 7 9 12 13 14 15 15 16 15 16 20 25 28 29 30 30 30 29 28 27 27 27 28 29 28 25 22 18 15 13 12 11 11 11 10 10 10 10 10 10 10 10 10 11 12 12 13 13 12 11 10 9 8 8 7 7 7 8 10 12 15 16 17 18 18 18 19 22 26 30 31 32 36 39 42 43 43 41 40 39 37 35 33 33 33 33 33
6 6 6 6 6 6 6 6 6 6 7 8 10 12 13 15 16 16 16 16 19 24 27 28 30 31 30 30 29 29 28 27 27 28 29 28 27 24 21 17 14 13 12 11 11 11 10 10 10 10 10 10 10 10 10 10 11 12 13 13 13 12 11 10 9 8 7 7 7 7 8 9 11 13 15 17 17 18 19 20 20 21 23 25 28 30 32 33 33 34 32 31 29 29 30 31 31
7 6 6 6 6 6 6 6 6 6 7 8 9 11 12 14 16 16 16 17 19 24 27 27 28 29 30 30 30 30 30 28 27 27 27 28 29 28 26 22 19 16 14 13 12 11 11 11 10 10 10 10 10 10 10 10 10 10 10 11 12 12 13 13 12 11 10 9 8 7 7 6 6 7 8 9 11 12 14 15 16 17 18 19 20 20 21 22 23 24 24 24 24 24 25 26 27
7 6 6 6 6 6 6 6 6 6 7 7 8 10 11 13 16 16 16 17 19 24 26 26 26 27 29 30 30 31 31 30 29 27 26 26 28 29 28 26 24 20 17 15 13 12 11 10 10 10 10 10 10 10 10 10 10 10 10 10 10 10 11 12 13 13 12 12 11 10 9 8 7 7 6 6 6 6 7 7 8 9 11 12 13 14 15 15 16 17 17 18 18 18 19 20 21
6 6 6 6 6 6 6 6 6 7 7 7 7 9 10 12 15 16 16 17 20 23 25 25 25 26 27 29 30 30 31 31 30 29 27 26 25 27 28 28 27 25 22 17 14 13 12 11 10 10 10 10 10 10 10 10 10 10 10 10 9 9 9 10 10 11 12 12 13 12 12 11 10 10 9 8 8 7 7 6 6 6 6 6 7 7 8 9 9 10 11 12 12 13 13 14 14
6 6 6 6 6 6 6 6 7 7 7 7 7 8 9 10 13 16 17 17 20 23 25 25 25 25 25 28 29 29 30 30 30 30 29 28 25 25 25 27 28 28 27 22 17 14 13 13 12 11 10 10 10 10 10 10 10 10 10 10 10 9 9 9 9 9 9 10 10 11 11 12 12 12 12 11 11 10 9 9 8 7 6 6 6 5 5 5 5 6 6 7 7 8 8 9 9
6 6 6 6 6 7 7 7 7 7 7 7 7 8 8 9 11 14 17 18 20 23 26 26 25 24 25 27 27 26 28 29 29 29 29 29 28 26 24 24 25 27 29 28 25 20 16 14 13 12 11 11 10 10 10 10 9 9 9 9 10 9 9 9 9 9 9 9 9 9 9 10 10 10 11 11 11 11 11 11 11 10 9 9 8 7 7 6 6 6 5 5 5 5 6 6 6
6 7 7 7 7 7 7 7 7 7 7 7 8 8 8 9 9 13 16 18 19 22 25 26 25 24 25 27 25 25 26 27 27 27 27 28 28 28 26 24 22 23 24 27 29 28 24 20 16 14 13 13 12 11 11 11 10 10 10 9 9 9 9 9 9 9 9 9 9 9 9 8 9 9 9 9 9 9 10 10 10 10 11 11 11 10 10 10 9 8 8 7 7 7 6 6 6
7 7 7 7 7 7 7 7 8 7 7 7 7 8 8 9 9 11 15 17 19 20 23 24 24 24 26 27 25 24 26 25 25 25 26 26 27 27 27 26 24 22 21 22 24 27 28 27 24 21 18 17 16 15 15 15 15 15 15 14 14 13 12 11 11 10 10 9 9 9 9 9 9 9 9 9 9 8 8 8 9 9 9 9 9 10 10 11 11 11 11 11 11 10 9 9 8
7 7 7 7 7 7 8 8 8 8 8 7 7 8 8 9 9 9 13 17 18 19 21 23 23 23 25 27 25 25 26 25 24 24 25 26 26 27 27 26 26 25 23 22 21 22 24 26 27 27 25 24 23 23 22 23 23 24 24 24 23 22 21 20 19 18 16 15 14 12 11 10 9 9 9 9 8 9 8 8 9 9 8 8 8 8 9 9 9 9 10 10 11 11 11 11 11
7 7 7 7 7 7 8 8 8 8 8 8 7 8 8 10 10 8 11 16 18 18 19 21 23 23 24 25 25 25 26 26 26 25 25 25 26 26 27 27 27 26 26 25 24 23 23 23 24 25 26 27 27 28 28 29 29 29 29 30 30 30 29 28 28 27 27 25 24 23 21 19 17 16 14 13 12 11 10 9 9 9 8 8 8 8 8 8 8 9 9 9 9 9 9 9 10
7 8 7 7 7 8 8 8 9 9 8 8 7 7 9 10 10 8 9 14 18 18 18 19 21 22 23 24 24 25 25 26 26 26 26 26 26 26 27 28 28 28 27 27 27 26 26 25 25 24 25 25 26 28 29 30 30 30 31 31 32 32 31 32 31 31 31 31 31 31 30 29 29 28 26 24 23 21 20 18 17 16 14 13 12 11 10 10 9 9 8 8 8 8 8 8 8
8 8 8 8 8 8 9 9 9 9 8 8 7 7 9 11 11 9 8 12 17 18 18 18 19 21 23 23 24 25 25 26 26 26 26 27 27 27 28 28 29 29 29 29 28 28 27 27 27 27 26 25 25 26 27 28 28 29 30 31 31 31 31 31 32 31 32 32 32 32 32 33 33 33 33 32 31 31 30 29 29 28 27 25 23 22 21 20 18 16 14 13 12 11 10 9 8
8 8 8 8 8 9 9 9 9 9 8 8 7 8 11 12 11 9 8 10 15 17 19 18 18 19 21 23 24 24 25 26 26 26 26 27 27 28 29 29 28 28 28 29 29 29 28 28 27 27 27 26 26 26 26 27 27 28 28 29 29 30 30 30 31 31 31 32 32 32 32 33 34 34 34 34 34 34 33 33 34 34 34 32 30 30 31 31 30 29 28 26 24 22 20 17 15
8 8 8 8 9 10 10 10 9 8 8 8 8 10 12 13 11 9 8 10 13 15 18 18 17 18 20 23 24 24 25 26 26 26 26 26 28 29 30 31 31 30 29 29 29 29 29 28 27 27 26 26 26 26 26 26 26 27 27 28 28 29 29 30 30 31 31 32 32 32 32 33 34 34 34 34 35 35 35 34 34 35 35 34 33 32 34 34 33 34 35 34 33 32 31 29 27
8 9 9 10 10 10 9 9 9 8 8 8 10 12 14 13 11 9 8 9 12 14 17 17 17 17 20 23 24 24 25 26 25 25 25 26 28 31 32 33 35 35 34 31 29 29 29 28 28 27 27 27 27 27 26 26 26 27 28 29 29 29 30 31 31 31 31 32 32 32 32 33 33 34 34 34 35 34 34 35 34 34 34 34 33 33 33 33 32 33 35 35 34 34 34 33 32
9 10 10 10 10 9 9 9 9 9 9 11 13 14 14 13 11 9 8 9 11 13 15 16 17 18 21 24 24 24 26 26 26 25 25 25 28 32 34 36 37 38 38 36 33 31 30 30 29 28 28 28 28 28 28 27 26 28 30 31 31 32 32 32 32 31 32 32 32 32 32 32 32 33 33 33 33 33 33 34 34 34 34 34 33 33 33 33 32 32 33 34 33 33 33 33 33
11 10 10 9 9 9 9 10 11 11 12 13 14 14 13 12 11 9 9 9 11 13 14 16 17 19 22 24 24 25 26 27 27 27 26 25 27 32 36 38 38 38 38 37 36 35 35 34 33 32 31 31 30 30 30 29 27 27 29 32 33 34 34 34 34 34 34 34 34 34 34 34 33 33 33 32 32 33 34 34 34 33 33 34 34 34 33 33 33 33 33 34 34 33 33 33 33
10 10 9 9 10 11 11 12 13 14 14 15 15 14 14 12 11 10 10 11 12 13 14 16 18 21 24 24 24 26 27 28 31 32 32 31 30 33 38 41 40 39 38 37 37 36 36 36 36 35 35 34 33 32 32 32 30 28 28 29 31 32 33 34 35 35 36 35 35 36 36 35 34 34 33 32 31 31 32 32 32 31 29 30 31 32 31 31 31 31 31 32 33 34 34 34 33
10 9 10 10 11 12 14 15 15 16 17 18 17 16 15 14 12 11 12 12 13 14 15 18 20 23 24 23 24 26 27 32 37 39 39 39 37 37 40 43 43 40 38 37 36 36 35 35 35 34 34 34 33 32 33 33 32 31 29 28 28 29 30 31 31 32 33 33 33 33 34 34 33 31 30 29 28 26 25 25 26 27 25 23 24 25 25 24 24 24 24 27 28 29 31 31 31
9 10 10 11 12 13 15 16 17 18 20 21 22 21 20 17 14 13 13 13 14 16 17 20 21 22 23 23 24 24 27 34 39 40 38 39 38 39 42 45 45 42 38 36 35 34 34 34 34 33 32 32 32 32 33 33 32 32 31 30 30 29 29 29 29 31 32 31 31 31 30 29 27 26 25 24 23 23 21 20 21 24 23 21 20 20 20 20 20 18 17 19 20 22 24 25 26
10 10 11 12 13 14 16 17 18 20 22 23 24 25 24 22 18 15 15 15 16 17 19 20 21 22 23 24 25 24 26 34 37 35 34 34 34 36 40 43 43 40 37 34 32 32 32 32 32 31 31 32 33 33 32 32 32 33 32 32 32 32 30 29 30 30 30 29 29 27 26 24 23 22 22 21 20 21 20 19 19 19 20 20 20 20 20 20 20 18 15 15 16 17 19 19 21
11 11 12 13 13 15 16 18 19 22 24 25 26 26 25 25 23 20 18 18 18 19 20 21 22 23 24 25 26 25 26 33 35 33 31 30 30 32 34 38 39 37 34 30 29 28 28 28 28 30 31 33 33 32 31 32 32 32 32 32 32 31 30 29 29 28 26 25 25 23 22 20 19 18 19 19 17 16 17 17 16 16 16 17 17 18 19 19 20 20 17 16 16 16 17 17 17
11 12 13 13 14 16 17 19 20 23 25 27 27 26 26 26 26 24 23 22 21 21 21 22 23 24 26 26 26 25 27 33 35 32 30 28 27 28 29 31 32 31 30 26 25 25 25 26 27 29 31 32 33 32 32 32 32 31 31 31 30 28 27 27 26 24 23 22 22 21 19 17 17 16 16 15 14 14 14 14 15 15 15 15 16 17 17 17 18 19 18 17 17 16 16 16 16
12 13 14 15 15 16 17 19 22 23 24 26 26 24 25 25 24 23 23 23 23 23 23 24 25 26 26 26 26 25 27 33 37 35 33 31 28 27 27 27 27 27 25 22 21 22 24 26 27 28 30 31 32 32 32 32 31 31 30 29 28 27 26 26 25 24 23 22 21 20 19 18 17 16 15 15 15 16 16 15 15 15 15 14 15 16 16 16 16 17 17 17 16 16 16 16 16
13 13 14 16 16 16 17 20 24 25 25 25 24 23 24 24 23 24 25 26 25 26 27 27 27 28 27 26 26 26 27 31 36 36 35 34 31 29 27 26 25 25 22 19 18 19 21 24 25 26 29 31 31 31 32 31 31 30 29 29 29 28 27 27 26 26 26 26 25 25 24 24 22 20 19 18 18 18 18 17 16 16 15 14 14 15 15 16 16 16 16 16 16 16 16 16 16
13 14 15 16 17 16 17 20 25 27 27 26 23 22 23 23 23 26 29 30 29 29 30 29 29 28 28 28 27 27 28 30 33 34 34 34 32 30 28 26 25 24 21 17 16 16 17 19 21 23 25 28 29 30 31 31 30 30 30 29 29 29 29 30 30 31 31 32 31 30 30 29 28 26 25 24 23 22 21 20 19 18 17 16 15 16 16 16 16 16 17 17 17 16 17 17 17
14 15 16 17 17 17 19 23 26 27 27 25 23 23 22 22 24 27 30 30 30 30 31 31 30 30 29 30 30 29 28 29 30 31 31 31 31 30 28 26 24 23 20 16 15 15 15 15 16 18 20 22 23 25 26 28 28 29 29 29 30 32 34 36 36 35 35 34 33 32 31 30 29 29 28 27 27 26 25 24 23 22 21 20 19 19 19 18 18 17 17 18 18 18 18 18 18
14 16 18 18 18 19 21 25 27 27 27 25 23 23 22 22 24 27 28 29 29 30 33 34 33 33 33 33 33 33 31 30 30 29 29 29 29 29 27 25 23 21 18 16 15 14 14 14 13 14 16 17 18 19 21 23 25 27 28 30 32 33 35 36 36 35 35 34 33 32 30 29 28 28 29 29 28 28 27 26 26 25 25 25 25 24 23 22 21 20 20 19 19 19 18 18 18
14 16 18 20 22 22 23 24 26 27 27 27 24 23 25 25 24 26 27 28 29 30 33 37 39 39 39 39 38 37 35 34 33 31 30 29 29 28 27 25 23 21 18 16 15 14 14 14 14 13 14 14 15 16 17 19 21 23 25 26 27 29 30 30 31 31 31 31 30 29 28 28 28 29 29 29 29 29 28 28 29 29 30 30 29 28 27 26 25 24 24 22 21 20 20 19 18
15 16 19 23 25 26 27 27 27 27 27 27 25 22 25 26 24 25 26 26 27 30 33 38 42 43 42 41 41 40 37 36 34 31 30 29 29 28 27 25 23 21 19 17 16 16 16 15 15 15 15 15 14 15 15 16 18 19 20 21 23 24 25 25 26 26 26 26 27 28 29 29 29 30 31 31 31 31 31 32 32 33 32 31 31 30 29 28 27 26 25 22 20 19 18 18 17
16 19 23 26 27 29 32 31 29 28 26 26 25 21 22 25 26 26 27 28 27 29 34 38 42 43 42 40 40 39 37 36 34 31 30 30 29 28 26 25 24 22 20 18 17 17 18 18 17 17 17 17 17 17 17 17 17 18 18 18 19 21 22 23 23 24 24 26 27 29 31 32 32 33 33 33 33 33 33 33 33 33 32 31 30 29 27 26 24 23 21 20 18 18 17 17 17
19 23 28 31 31 31 34 34 30 28 26 24 23 21 20 23 27 28 27 27 27 30 37 40 40 42 42 41 39 37 35 36 35 32 31 31 29 28 27 26 24 23 22 20 19 20 21 21 20 20 20 21 21 21 21 21 21 20 18 17 17 19 21 23 24 25 26 27 29 30 31 32 33 33 33 33 34 33 33 33 32 31 29 27 25 24 22 21 20 19 19 18 18 18 18 18 18
24 28 32 35 35 36 37 35 30 28 26 24 22 20 20 23 26 28 26 26 28 31 35 39 42 42 42 41 40 37 36 36 34 33 33 32 31 30 28 27 25 24 24 22 22 23 24 24 23 23 23 24 24 24 23 23 22 21 19 17 17 19 21 23 25 27 28 28 29 30 31 31 32 32 32 32 32 32 31 30 28 26 25 23 22 21 21 21 20 20 20 20 20 20 20 20 20
30 34 36 37 38 39 38 34 30 29 26 23 22 20 19 21 25 27 27 27 29 30 32 36 42 43 42 42 41 39 37 36 34 34 34 34 34 33 30 28 26 25 25 25 25 25 26 26 25 24 24 25 25 25 25 25 24 22 21 20 21 22 23 25 26 27 28 29 29 30 30 31 31 31 31 30 30 29 27 26 25 24 24 23 24 24 24 24 23 23 22 22 22 22 22 22 22
35 38 38 36 39 41 38 35 31 29 26 23 21 19 18 20 24 27 29 28 27 31 35 37 41 43 43 43 41 39 38 37 36 35 36 36 35 34 31 28 27 26 26 26 27 27 27 27 26 26 27 28 29 29 29 28 26 25 25 25 26 26 26 27 28 29 29 29 30 30 30 30 29 29 28 28 28 27 26 25 25 25 25 25 26 26 25 25 24 23 23 23 23 23 23 24 24
35 36 36 35 37 39 38 37 32 27 26 23 21 18 17 20 24 27 29 29 30 34 39 42 44 45 44 42 41 39 38 37 37 37 37 37 36 34 31 28 26 26 26 26 27 27 27 27 27 28 30 30 30 30 29 28 26 25 26 27 27 27 28 29 30 30 30 31 30 29 28 27 27 27 27 27 27 26 26 26 26 26 27 27 27 26 25 25 25 24 24 24 24 24 25 25 26
33 32 31 32 35 37 36 36 32 27 25 23 21 19 16 19 23 25 28 32 36 41 47 50 49 47 44 43 42 41 39 38 38 37 37 38 38 36 32 29 27 26 25 25 25 26 26 27 28 29 29 30 30 30 30 28 27 27 26 26 27 28 29 30 30 30 30 29 28 26 25 25 26 26 26 27 27 27 27 27 27 28 28 28 27 26 26 25 26 26 26 26 27 28 28 28 28
31 28 27 29 32 34 34 34 32 26 24 22 20 19 16 17 21 26 31 35 39 44 52 57 54 50 45 42 42 43 42 41 40 39 39 40 40 38 35 32 30 28 26 24 23 24 26 27 27 28 29 31 33 33 32 32 30 28 27 28 29 29 30 30 28 27 27 25 25 24 25 26 27 27 28 28 29 29 29 29 29 29 28 27 27 26 26 26 26 27 29 30 31 31 31 31 30
28 27 28 28 28 29 30 32 30 26 23 20 19 21 19 16 19 28 37 41 43 46 52 57 55 52 48 45 44 44 44 43 43 42 42 42 42 40 38 35 32 30 28 26 24 25 26 27 28 30 33 35 37 36 35 33 31 29 30 30 30 29 29 28 26 26 25 25 25 26 27 28 29 29 30 30 31 31 31 31 30 29 28 28 27 26 26 27 29 31 33 33 33 33 33 32 31
28 28 28 27 26 26 27 28 27 27 24 19 20 27 25 17 17 26 35 42 46 50 53 54 54 52 50 48 46 46 45 44 44 43 43 44 43 41 40 37 35 32 31 31 30 29 29 30 33 35 37 39 39 38 35 33 31 31 31 31 30 29 28 27 26 26 27 27 28 29 30 31 31 32 32 32 33 33 33 32 31 30 29 28 27 27 29 31 34 35 35 34 34 34 33 32 32
28 28 26 26 26 26 28 28 29 30 24 19 24 32 30 21 18 23 32 41 47 49 50 52 53 53 51 50 49 48 48 46 45 44 43 43 43 42 40 38 37 36 36 35 35 35 36 37 38 39 40 40 39 36 33 32 31 32 32 31 30 29 28 28 28 29 29 30 31 31 33 33 33 34 34 34 34 34 34 33 32 30 28 28 29 31 34 36 37 36 36 35 34 34 33 32 31
28 28 27 29 30 30 32 33 35 34 24 22 30 36 34 24 16 20 30 40 47 47 47 47 49 50 50 50 50 50 49 47 46 44 42 43 43 42 40 40 40 39 38 38 39 40 40 40 40 40 40 38 35 33 32 32 32 33 32 31 31 31 31 32 32 32 31 31 31 32 33 34 34 35 35 35 35 34 33 31 30 29 29 32 35 37 38 38 37 36 36 35 34 33 32 31 30
32 31 31 35 37 38 40 40 40 35 25 25 32 38 38 26 16 22 31 39 45 47 46 44 45 46 45 45 46 47 47 47 47 45 43 43 43 43 43 43 43 42 41 42 42 41 40 40 39 38 36 34 33 33 33 34 34 34 33 33 34 34 34 34 33 32 30 29 30 32 34 35 35 36 35 35 34 32 31 30 31 33 36 38 39 39 39 38 37 36 35 34 33 32 31 30 29
49 47 48 53 55 52 48 44 41 35 29 30 35 41 37 22 18 29 39 45 46 46 45 43 43 44 43 44 44 45 47 48 48 47 44 44 44 45 45 44 43 43 43 42 41 41 39 37 36 35 34 33 34 34 34 34 34 34 35 36 36 36 35 33 31 29 28 30 32 34 36 36 36 35 34 33 32 32 33 35 38 40 42 41 40 39 39 38 37 35 34 33 32 31 30 30 29
71 69 70 70 70 64 53 46 45 40 38 38 42 45 35 22 25 36 45 49 47 44 44 42 41 42 43 46 48 51 53 52 50 49 47 45 45 45 43 42 42 41 42 42 41 39 36 35 35 35 34 34 35 34 34 34 35 35 36 36 36 35 33 31 29 29 30 32 34 36 36 35 34 33 33 34 35 38 41 43 44 44 43 42 41 39 38 37 36 34 33 32 32 31 30 30 29
79 79 78 73 72 71 62 58 58 53 49 47 46 44 34 29 35 40 43 44 44 43 42 40 40 42 45 49 54 58 57 55 51 48 47 46 44 42 39 39 40 41 41 40 37 36 36 37 36 34 33 34 35 35 34 35 35 36 36 37 36 33 30 28 29 31 32 33 34 35 34 34 34 35 37 39 43 45 46 46 46 45 44 42 41 39 37 36 35 34 33 32 31 31 30 30 30
80 83 80 73 76 82 77 70 69 68 61 52 47 42 36 38 40 39 41 41 42 43 40 39 43 47 51 54 59 62 58 53 50 46 44 42 39 36 35 37 39 40 39 37 36 37 38 38 36 34 34 35 37 36 35 35 36 37 36 35 33 29 27 28 30 32 33 34 35 35 36 37 38 40 44 47 49 49 49 48 47 46 44 41 39 38 36 35 34 33 32 31 31 31 31 31 31
76 81 78 78 87 92 88 78 74 77 70 54 48 46 43 44 39 36 41 42 42 43 39 39 45 53 59 61 64 65 60 53 48 45 42 38 35 35 36 39 40 39 38 38 38 38 38 37 37 37 37 39 40 37 36 37 36 34 31 30 29 28 28 30 31 33 35 36 37 38 40 42 45 48 51 52 51 51 49 48 47 45 42 40 38 37 35 34 33 32 32 31 31 31 31 31 32
76 80 82 89 95 92 89 84 78 81 75 55 47 48 47 45 37 34 41 43 42 44 44 48 55 62 66 67 67 65 60 53 48 44 41 39 39 40 41 42 43 42 42 41 41 40 40 40 41 42 42 44 42 39 38 38 34 30 27 28 30 30 31 33 34 35 38 40 42 44 46 50 53 55 55 53 52 51 49 47 45 43 40 39 37 35 34 33 32 31 31 31 31 32 32 32 32
79 82 85 90 90 86 87 88 82 80 75 58 46 44 41 38 35 35 39 42 43 46 55 63 67 70 71 69 66 61 56 53 49 47 45 44 45 46 48 49 50 50 48 47 46 45 44 45 46 47 47 46 42 40 40 37 32 30 29 32 34 35 36 36 37 40 43 45 47 49 53 57 59 57 55 53 52 50 48 46 43 41 39 37 35 34 33 32 32 32 32 32 32 32 32 32 32
85 85 88 91 91 90 91 90 84 82 78 62 47 40 34 33 36 39 41 43 44 50 64 73 75 76 75 70 65 61 59 56 53 52 50 49 51 52 54 56 56 56 55 52 50 48 48 50 50 49 47 44 42 42 40 36 33 34 35 36 38 39 40 40 43 46 47 49 52 56 60 61 59 57 55 53 51 49 46 43 41 39 37 35 34 33 33 33 32 32 32 32 32 32 32 32 31
96 91 89 89 91 95 94 87 83 85 79 64 51 40 32 34 40 41 42 44 46 53 65 72 75 79 77 73 70 68 67 65 63 62 60 59 59 59 60 61 61 60 58 55 53 53 54 53 50 48 46 44 43 42 40 37 37 39 39 41 42 43 44 45 48 49 50 55 60 63 64 61 59 57 54 52 49 47 44 41 39 37 35 34 34 33 33 33 33 33 33 33 32 32 31 30 28
94 92 87 87 94 102 100 85 77 81 77 68 65 48 30 35 41 38 41 46 48 55 61 66 72 77 79 81 80 78 77 76 73 70 67 65 65 66 66 66 64 62 59 58 57 56 54 50 48 48 47 46 45 42 41 40 41 42 44 45 46 47 48 50 51 53 58 64 67 67 64 61 59 56 53 50 47 44 42 39 37 35 34 34 33 33 33 33 33 33 33 32 31 30 28 25 22
Wind_Speed
4 5 6 6 7 8 10 10 11 10 11 15 13 10 11 11 11 11 11 10 10 9 10 10 10 10 11 11 11 10 9 8 7 7 7 8 9 9 9 9 10 11 11 11 11 11 10 10 9 8 7 7 7 8 8 8 9 9 9 8 7 6 5 3 1 4 6 7 8 9 8 7 6 6 6 6 5 5 6 6 6 6 6 6 7 7 8 9 9 10 11 11 12 12 11 11 10
3 4 5 5 6 7 9 9 9 10 13 12 10 10 10 10 10 10 10 9 9 8 8 7 8 9 9 10 10 11 11 10 9 7 7 7 7 7 7 7 8 9 10 10 11 11 11 11 10 9 9 8 8 7 7 7 8 8 9 8 8 8 7 6 5 4 3 3 5 6 8 8 8 8 8 7 6 7 7 7 7 6 6 6 6 6 7 7 8 8 9 10 11 11 11 10 10
2 3 4 5 6 7 8 8 9 10 12 10 8 9 8 9 9 9 10 9 8 7 7 6 6 7 8 9 9 10 10 11 10 9 7 6 5 5 5 5 5 6 7 8 9 9 9 10 10 9 9 9 9 8 7 7 7 7 7 7 8 8 7 7 7 6 6 5 4 4 4 6 8 9 10 9 9 9 9 9 8 8 8 7 7 7 7 8 8 9 9 10 10 10 10 10 10
2 2 3 4 5 6 7 8 9 11 12 10 7 8 8 7 8 8 9 9 8 7 6 5 5 6 7 7 8 8 8 9 10 10 9 7 5 4 4 4 4 4 4 5 5 6 7 7 8 8 8 8 8 8 8 7 6 6 6 6 6 6 6 6 6 6 6 5 5 5 4 4 5 7 8 9 10 10 10 11 11 10 10 10 9 9 9 9 10 10 10 11 11 11 11 11 11
2 1 2 3 4 5 6 7 9 10 11 10 7 7 7 7 7 7 8 8 8 7 6 5 4 5 5 6 7 7 7 8 8 8 9 8 6 5 4 3 3 3 3 3 3 3 4 4 5 5 6 6 6 7 7 7 7 6 5 5 4 4 4 5 5 5 5 5 5 4 4 4 5 5 5 6 7 8 9 11 11 12 12 12 12 12 12 12 12 12 13 12 12 12 12 12 12
2 0 1 3 4 4 5 7 9 10 10 10 8 7 7 6 6 6 7 7 7 7 6 5 4 3 4 5 6 6 6 7 6 7 7 7 7 6 4 3 2 2 2 2 1 1 1 2 2 2 3 3 4 4 5 5 5 5 5 5 4 4 3 4 4 4 4 4 4 4 4 4 4 4 5 5 6 6 7 8 9 10 11 12 12 13 13 13 14 14 14 14 14 14 13 13 14
2 0 2 3 3 4 5 7 8 9 9 9 8 8 7 6 6 5 6 6 7 7 6 5 4 3 3 4 5 5 6 6 5 5 5 5 5 5 5 4 3 2 2 2 2 2 2 1 1 1 1 1 1 1 2 2 3 3 3 3 3 3 3 3 3 3 4 4 4 5 5 5 5 4 5 5 5 6 7 7 8 8 9 9 10 11 12 12 13 13 14 14 14 14 14 15 15
2 1 2 2 3 4 5 6 8 8 8 9 8 8 7 6 5 5 5 6 6 6 6 5 4 3 2 3 4 5 5 5 5 4 4 3 3 3 3 3 3 2 2 2 3 3 3 3 3 2 2 2 1 1 1 0 0 1 1 1 2 2 2 3 3 3 3 4 4 5 5 6 6 6 6 6 6 6 7 7 7 8 8 8 9 10 11 11 11 12 13 13 14 15 15 16 16
2 2 2 3 4 5 5 6 7 8 8 8 8 8 8 6 5 5 5 5 6 6 6 6 5 4 3 3 4 4 5 5 5 5 4 3 2 1 1 2 2 1 1 1 2 3 4 4 4 4 3 3 3 3 3 3 2 2 2 2 2 2 2 2 2 2 3 3 4 4 5 6 6 7 7 7 8 8 8 9 9 9 9 9 9 10 10 11 11 11 12 13 14 14 15 16 16
2 2 3 3 4 5 6 6 7 7 8 8 8 8 8 7 6 5 4 5 5 5 5 6 6 5 4 4 4 4 4 4 4 5 4 4 3 2 1 1 1 1 1 1 1 2 3 4 4 4 4 4 4 4 4 4 4 4 4 4 4 4 3 3 3 3 3 3 3 4 4 5 5 6 7 7 7 8 9 10 10 10 10 10 10 11 11 11 12 12 13 13 14 14 15 16 16
3 3 4 4 5 6 7 7 7 7 7 8 8 8 9 8 7 5 4 5 5 4 5 5 6 6 5 5 5 4 5 5 4 5 5 4 4 3 3 2 2 2 2 2 3 3 2 2 3 4 5 5 5 5 5 5 5 6 6 6 6 5 5 6 5 5 5 5 5 5 5 6 6 6 7 7 8 8 9 9 10 11 11 11 12 12 13 13 14 14 15 15 15 15 16 16 17
4 4 5 6 7 7 8 8 8 8 8 8 8 9 10 9 8 7 5 4 5 4 4 5 5 5 5 5 5 5 5 5 5 5 5 5 5 5 4 4 3 3 3 3 3 3 3 3 2 3 4 5 5 5 5 6 6 6 6 7 7 7 7 7 7 7 7 7 7 7 8 8 8 8 8 9 9 9 10 10 11 11 11 11 12 13 13 14 15 15 16 17 17 17 18 18 18
5 6 6 7 8 9 9 9 9 9 9 9 10 10 11 10 9 8 6 4 5 5 4 4 5 5 4 5 5 5 5 6 5 5 5 6 6 6 5 5 5 5 4 4 3 3 3 3 3 3 3 4 4 4 5 5 6 6 6 7 7 7 7 8 8 8 8 8 8 9 9 9 9 10 10 10 11 11 11 12 12 13 13 13 13 13 14 14 15 16 16 17 18 18 19 19 20
7 7 8 9 9 10 11 10 10 10 10 10 11 12 12 11 10 9 8 5 6 7 5 5 6 5 4 5 6 6 6 7 7 7 6 6 6 6 6 6 6 6 6 6 5 4 4 4 4 4 4 4 5 5 4 4 5 5 5 6 6 7 7 7 7 8 8 8 8 8 8 9 9 10 10 11 11 12 12 13 13 15 15 15 15 15 15 16 16 17 17 18 19 19 19 20 21
8 9 10 10 11 11 12 12 12 11 10 12 12 13 14 13 11 9 9 7 7 8 7 6 6 6 6 6 7 8 8 8 8 9 8 8 7 7 7 7 7 7 7 7 7 6 6 5 5 5 5 5 6 6 6 5 5 5 5 5 5 6 6 7 7 7 7 7 7 8 8 8 9 9 10 10 11 11 12 12 13 15 16 16 16 16 16 17 18 18 19 19 20 21 21 22 22
10 11 12 12 13 13 13 13 13 13 12 13 13 14 15 14 12 10 9 8 9 10 9 8 8 7 7 7 8 9 10 10 10 10 10 10 9 9 8 8 8 8 8 7 7 7 7 7 7 7 7 7 7 7 7 7 7 6 6 6 6 6 6 6 7 7 7 7 7 7 8 8 8 9 9 9 9 10 11 11 12 13 15 15 15 15 16 16 18 19 19 20 21 22 22 23 23
12 13 14 14 14 14 15 15 15 15 14 14 14 15 16 15 13 11 10 10 10 11 11 10 10 9 9 9 9 10 11 12 12 11 11 10 10 10 9 9 9 9 9 9 9 8 8 8 8 8 8 8 8 7 7 8 8 8 7 7 7 8 7 7 8 8 8 8 8 8 8 8 9 9 9 10 10 10 10 10 10 11 13 13 13 13 14 15 16 18 19 19 20 21 22 23 24
14 14 16 16 15 15 16 16 16 17 16 15 16 17 16 15 14 12 11 11 11 11 12 12 11 11 11 11 12 12 12 12 13 13 12 11 11 10 10 10 10 11 11 10 10 10 10 10 9 9 9 9 9 9 8 9 9 9 9 9 9 9 9 9 9 9 10 10 10 9 9 9 10 10 11 11 11 11 11 11 11 12 13 14 13 13 13 13 14 16 17 17 18 19 20 21 22
15 17 18 17 17 17 17 17 18 18 17 17 17 18 17 15 15 13 11 12 13 12 12 14 13 13 12 12 13 14 14 13 13 13 13 12 11 11 10 10 10 11 11 11 11 11 11 11 11 11 10 10 9 9 9 9 9 9 10 10 10 10 10 10 11 11 11 12 12 11 11 11 11 12 12 13 13 14 14 14 14 14 16 17 17 16 15 16 16 16 17 18 19 19 20 20 21
17 19 19 18 19 19 18 18 19 18 18 19 19 19 17 15 15 14 12 12 14 12 12 15 15 15 14 14 15 15 15 15 14 14 13 13 12 12 11 11 11 11 11 11 12 12 12 12 12 12 12 11 10 10 10 9 9 9 10 10 11 11 11 11 12 12 12 12 13 12 12 13 13 13 14 14 15 15 16 16 16 17 17 19 20 20 19 20 20 19 20 21 22 22 22 23 23
19 20 19 19 20 20 19 19 20 20 19 19 19 18 17 16 15 14 13 13 13 12 13 15 14 16 16 16 17 17 17 16 15 15 14 13 13 12 11 11 12 12 12 11 11 12 12 12 12 13 12 12 12 11 10 10 10 9 10 10 11 11 11 12 12 12 12 12 12 13 13 14 14 14 14 15 15 16 16 17 17 18 18 19 20 20 21 21 22 22 21 23 25 26 26 26 26
19 20 20 20 21 20 21 20 20 20 20 19 18 18 17 16 16 14 14 14 14 13 15 14 14 16 17 17 18 18 18 17 16 16 15 14 13 12 12 12 12 13 13 12 11 11 11 12 12 12 13 13 12 12 11 11 10 10 10 10 11 11 11 11 12 12 12 12 12 13 13 14 14 14 15 15 15 15 16 16 17 18 18 18 20 20 21 22 23 24 23 24 26 27 29 29 29
20 19 20 21 21 21 21 20 20 19 19 18 17 17 17 17 16 15 15 15 16 15 15 15 15 16 17 18 18 19 19 18 17 16 15 15 14 13 13 12 13 13 13 12 12 12 11 12 12 13 13 13 13 12 12 11 11 11 11 11 11 11 11 12 12 12 12 12 12 13 14 14 14 15 15 16 16 16 16 16 17 18 18 18 19 20 21 22 23 24 25 25 26 28 29 30 31
19 19 21 22 22 21 21 20 20 20 19 18 18 18 18 17 16 16 16 16 18 17 16 16 16 17 17 18 18 18 18 18 18 17 16 15 15 14 14 14 14 14 13 13 12 13 13 13 13 13 14 14 14 13 13 12 12 12 12 12 12 11 12 13 12 12 12 13 13 13 14 15 16 16 16 17 17 17 17 17 17 18 19 20 20 20 22 23 24 25 25 26 27 28 29 31 32
20 21 22 23 22 22 22 22 22 22 22 21 20 20 19 18 17 17 17 17 20 19 18 19 18 18 18 18 17 18 18 18 18 17 17 16 15 15 15 15 15 15 14 14 14 14 14 14 14 14 14 14 14 14 14 14 13 13 13 13 12 12 13 14 13 13 13 13 13 14 15 15 16 16 17 18 18 19 20 20 20 20 21 22 23 23 24 25 26 27 27 28 29 29 30 32 33
22 22 23 23 23 23 22 23 23 24 24 24 23 22 21 20 19 18 17 19 22 21 21 21 20 20 20 19 18 18 18 18 18 17 17 17 16 15 15 15 16 16 15 15 15 15 15 15 15 15 14 14 15 16 15 15 14 14 15 14 14 14 14 14 13 13 14 14 14 15 16 17 17 18 18 19 20 20 21 23 23 23 24 24 25 26 27 28 29 30 31 31 32 32 33 34 35
23 24 24 25 24 24 24 24 25 25 26 26 25 24 23 21 21 20 19 22 23 22 22 21 21 21 21 20 19 18 18 17 17 17 17 17 16 16 16 16 17 17 17 17 16 16 16 16 15 15 14 14 15 16 16 15 16 15 15 15 15 15 15 15 15 15 15 15 16 17 18 18 19 20 20 21 22 22 23 24 24 25 26 26 27 27 28 30 31 33 34 34 34 35 36 36 37
24 25 25 26 25 25 25 25 26 26 26 26 26 25 23 21 22 21 21 24 23 23 23 22 21 21 21 21 19 18 18 18 18 17 17 17 17 17 17 18 18 18 18 17 17 17 17 16 16 15 15 15 16 16 16 16 16 16 15 15 15 15 16 16 16 17 17 17 18 18 19 20 20 21 22 22 23 24 25 25 26 27 28 28 29 29 30 31 31 33 36 36 37 37 38 39 39
25 26 27 27 27 26 25 26 27 27 26 25 26 24 22 22 22 21 22 23 23 23 23 22 21 21 21 21 20 19 18 19 19 19 18 17 17 18 18 19 19 19 18 18 17 17 17 17 16 16 15 15 16 16 16 16 16 16 16 15 15 16 17 17 18 18 19 20 20 21 21 22 22 23 23 24 24 25 26 27 28 28 29 30 30 31 32 33 33 34 36 37 38 39 39 40 41
27 28 28 28 28 27 26 26 27 28 26 25 26 24 22 23 22 20 22 23 24 23 23 22 21 20 20 20 20 19 19 20 21 21 20 19 18 18 19 20 20 19 18 18 17 17 17 17 17 17 16 16 16 16 16 16 16 16 17 17 17 18 18 19 20 20 21 22 23 23 24 24 25 25 26 26 27 27 28 29 30 31 32 32 32 33 34 35 35 36 37 38 39 39 40 41 42
29 29 29 28 29 29 27 27 26 26 26 26 27 26 24 24 22 21 22 25 25 23 22 21 20 20 20 20 20 20 20 21 22 22 22 21 20 19 20 21 20 19 19 18 17 17 17 18 18 17 17 18 18 18 17 17 18 18 19 19 19 20 20 21 22 23 24 24 25 25 26 27 27 28 29 30 30 31 31 32 32 33 34 35 35 35 36 37 37 37 38 38 39 40 41 42 43
30 30 30 29 30 30 28 27 26 26 26 28 28 28 27 26 24 23 23 25 26 24 22 21 20 20 20 20 21 21 21 21 22 23 22 22 21 21 21 22 21 20 19 19 18 17 17 18 18 18 18 19 19 19 20 20 21 21 22 22 22 22 23 24 25 26 26 27 27 28 28 29 29 30 31 32 33 34 34 35 36 36 37 37 38 38 38 38 39 39 40 41 41 42 43 44 45
31 31 30 31 31 30 29 26 26 26 27 29 29 29 29 28 25 24 24 25 26 24 22 22 21 21 21 22 22 22 22 22 23 23 23 23 22 22 22 23 22 21 20 20 19 18 18 18 19 19 19 20 20 21 21 22 22 23 24 24 25 26 26 27 28 28 29 29 30 30 30 31 31 32 33 34 35 35 37 38 39 39 40 40 40 40 40 40 41 42 42 43 44 45 45 46 47
34 34 31 30 31 31 31 29 27 27 28 29 31 30 30 31 29 26 25 26 26 25 24 23 22 22 23 23 23 23 23 23 24 24 24 23 23 23 23 24 24 23 22 21 20 19 19 20 20 20 21 21 22 22 23 23 24 25 26 27 28 28 29 30 31 31 31 32 32 33 33 34 34 35 36 36 37 38 39 40 41 42 42 42 42 42 43 43 43 44 44 45 46 47 48 48 49
36 36 33 30 29 31 32 32 29 28 29 30 33 32 30 31 31 28 27 27 27 26 26 25 23 24 25 25 25 25 25 24 25 25 24 23 23 24 24 25 25 24 24 23 21 21 21 21 22 22 23 23 24 24 25 25 26 27 28 29 30 30 31 32 33 33 34 34 34 35 36 37 37 38 39 39 40 41 42 43 43 44 44 44 44 45 45 46 46 46 47 48 49 50 51 52 53
36 36 35 32 31 30 31 34 32 29 31 32 34 35 32 31 32 31 28 28 28 27 28 27 25 26 27 27 27 27 26 25 26 26 24 24 24 24 25 25 26 26 25 25 24 23 23 23 24 24 25 25 25 26 26 27 28 28 30 31 32 33 34 34 34 35 36 37 38 38 39 39 40 41 41 42 43 43 44 44 45 45 46 46 47 48 48 48 49 50 50 51 52 53 54 55 56
37 36 36 34 33 31 30 34 34 31 33 34 34 36 34 31 32 33 31 29 28 27 28 30 28 27 28 29 29 28 27 27 27 27 25 25 24 25 25 26 27 27 27 27 26 26 26 26 26 26 27 27 27 27 28 28 29 29 31 33 35 36 36 36 37 38 39 40 40 41 41 42 42 43 43 43 44 44 45 45 46 47 47 48 49 50 51 51 52 53 54 55 56 57 58 58 59
39 37 36 36 35 33 32 36 36 33 35 35 34 37 35 32 32 34 35 32 28 28 29 30 31 31 30 30 31 30 29 28 28 27 26 26 25 25 26 26 28 28 28 28 28 28 28 28 28 28 29 29 29 29 29 29 30 30 32 33 35 37 37 38 38 39 40 41 42 42 43 43 43 44 44 45 45 45 46 46 47 47 48 49 49 51 52 53 54 56 57 58 59 60 60 61 61
39 38 38 38 37 36 36 37 38 37 37 35 35 38 37 34 33 34 36 35 32 31 31 30 32 33 32 31 32 32 30 29 29 28 27 27 27 27 27 27 28 28 29 29 30 30 29 29 30 30 31 31 30 30 30 30 31 32 33 34 36 37 37 38 39 40 41 42 43 44 44 44 45 45 46 46 46 46 47 47 47 48 48 49 50 51 53 55 57 59 60 61 62 62 63 63 64
40 39 40 40 38 38 39 39 39 39 38 37 37 39 38 34 33 33 35 36 34 33 32 32 33 33 33 33 33 33 31 31 30 29 29 29 28 28 28 28 28 28 29 29 30 30 31 31 31 32 32 32 32 31 31 32 33 33 34 35 36 37 38 39 40 41 42 43 44 44 45 45 46 47 48 48 48 48 49 49 50 50 51 52 53 55 56 58 60 62 63 64 65 65 66 66 66
41 40 41 41 40 40 40 40 41 40 38 38 39 41 39 34 34 34 34 36 35 33 33 33 34 34 34 33 33 33 32 32 31 30 30 30 29 29 29 29 28 28 29 30 31 31 32 32 32 33 33 33 32 32 33 34 35 36 37 37 38 39 40 41 42 43 43 44 44 45 45 46 48 49 49 50 50 51 52 53 53 54 55 56 57 58 60 62 63 64 65 66 67 67 68 68 68
42 41 41 41 41 41 41 41 43 41 39 39 40 43 41 35 34 34 32 33 34 33 32 33 35 36 34 33 32 33 33 32 32 32 32 32 31 31 30 30 29 29 30 31 32 33 33 34 34 34 34 34 34 34 35 35 36 37 38 39 40 41 42 43 44 44 45 45 45 45 46 48 49 50 51 51 52 53 54 55 56 57 58 59 60 61 62 63 64 66 67 68 68 69 70 70 70
42 42 41 41 41 41 41 41 43 43 41 40 40 42 42 37 32 31 31 33 33 31 31 32 35 37 36 34 33 33 33 33 33 33 33 34 33 33 32 31 31 31 31 31 32 34 35 35 35 35 35 35 35 36 36 37 38 39 40 40 41 43 44 44 45 45 45 45 46 47 48 49 50 51 52 53 54 55 56 57 58 59 61 62 63 64 65 66 67 67 68 69 70 71 71 71 71
43 42 41 41 41 40 40 40 42 43 42 42 41 40 43 40 31 27 30 33 32 30 30 32 36 37 37 36 34 34 34 33 33 34 34 35 35 34 33 32 33 32 32 32 33 34 35 36 36 36 36 37 37 37 38 39 39 40 41 42 43 44 44 44 45 45 46 46 47 48 50 51 52 53 53 54 55 56 57 59 60 62 64 65 66 67 68 68 69 69 70 71 72 72 73 73 74
43 41 41 41 41 40 39 39 40 41 43 45 42 39 42 42 34 29 31 31 30 29 30 33 36 37 37 37 35 35 34 34 34 35 35 35 35 35 35 35 34 34 33 33 33 34 35 36 36 36 37 37 38 38 39 40 41 42 43 44 44 44 44 44 45 46 47 48 49 50 51 52 53 54 54 55 56 57 59 60 62 64 66 68 69 69 69 69 70 71 72 73 74 75 75 76 76
42 41 40 40 40 40 39 40 40 42 46 46 41 38 41 42 37 34 32 29 27 28 30 33 36 38 39 38 36 35 35 35 35 35 36 36 36 36 35 35 35 34 33 33 33 33 34 35 36 37 37 38 39 39 40 41 42 44 44 44 44 44 44 45 46 47 48 49 51 52 53 54 54 55 55 56 57 59 60 62 64 67 68 69 70 70 70 70 71 73 74 75 76 76 77 77 77
40 40 40 39 40 40 40 41 42 45 48 44 40 39 41 43 40 35 33 31 28 27 30 33 35 37 39 38 37 36 37 37 36 36 36 35 35 35 35 34 33 33 33 33 33 33 34 35 36 37 37 38 39 40 42 43 44 44 45 45 45 45 46 47 47 48 50 51 53 54 54 55 55 55 56 57 59 60 63 65 67 68 69 69 70 70 71 72 73 74 75 76 77 77 77 77 78
40 41 41 40 41 42 43 44 45 48 48 44 42 40 42 45 41 36 36 35 31 29 30 32 34 36 37 38 37 37 38 37 36 35 34 34 34 33 33 32 32 33 33 33 33 34 35 35 36 36 37 38 40 41 42 43 44 45 45 45 46 46 47 47 48 50 52 54 55 55 55 55 55 56 57 59 61 63 65 67 68 69 69 70 71 72 73 74 74 75 76 77 77 77 78 78 78
39 41 41 41 42 44 46 47 47 48 47 45 44 44 45 46 41 37 37 37 36 34 32 32 33 35 36 36 36 37 37 36 35 34 34 33 33 32 32 32 32 33 33 34 34 35 35 35 36 36 37 39 40 41 43 44 45 45 46 46 46 47 48 49 50 52 55 56 56 56 55 56 57 58 59 61 63 65 66 67 68 69 70 71 72 73 74 75 75 76 77 77 78 78 78 78 78
40 41 42 42 44 47 48 48 47 47 46 45 45 46 48 46 40 37 36 36 38 37 34 33 33 34 35 35 35 35 34 33 33 33 33 33 32 32 32 32 32 33 34 35 35 35 36 36 36 37 39 40 41 43 45 46 47 47 47 47 48 49 49 51 54 56 57 57 57 57 58 59 60 61 62 64 65 66 67 68 69 71 72 73 74 75 75 76 76 77 77 78 78 78 78 78 77
42 42 43 45 45 46 47 47 47 48 47 47 47 48 48 44 41 38 36 35 36 36 36 35 33 33 34 34 34 33 31 31 31 32 32 32 31 31 32 32 34 35 35 35 36 36 37 37 38 40 41 42 44 46 47 48 48 48 48 49 50 50 52 54 57 59 59 59 59 60 60 61 61 63 64 65 66 67 68 70 71 73 74 75 75 76 76 77 77 78 78 78 78 78 78 77 77
44 43 45 46 44 43 45 47 48 48 49 49 50 49 47 44 42 40 38 36 35 36 37 37 35 34 33 33 33 32 31 31 31 31 31 31 31 31 32 34 34 35 35 36 37 38 39 40 42 43 44 45 46 48 49 49 49 49 50 51 52 52 55 58 60 61 61 61 61 61 61 62 63 65 65 66 68 69 71 72 73 74 76 76 77 77 77 78 78 78 78 78 78 78 77 77 76
46 45 46 44 41 41 44 47 47 48 50 51 50 49 47 45 43 41 40 39 37 38 38 38 36 34 32 31 31 31 31 31 31 31 30 30 30 31 33 33 34 35 36 38 39 40 42 44 45 46 47 48 49 50 50 50 50 51 52 53 53 55 58 61 62 63 63 62 62 62 63 64 65 66 67 68 70 71 73 74 75 76 77 78 78 78 78 78 78 78 78 78 77 77 77 77 77
48 46 44 42 41 44 45 46 48 49 52 53 52 50 50 49 46 43 42 41 40 40 39 37 34 32 30 29 29 30 31 31 31 30 30 30 30 31 32 33 34 36 38 40 41 42 44 46 47 48 49 50 51 51 51 51 52 53 53 54 55 58 61 63 63 64 64 63 63 64 65 66 67 68 69 71 72 73 74 76 77 78 78 79 79 78 78 79 79 78 78 78 77 77 77 77 77
47 46 44 43 44 46 46 47 49 51 54 56 55 53 51 50 48 46 45 42 39 38 37 34 31 29 28 28 28 28 29 29 30 30 30 31 32 33 33 34 36 38 40 40 42 43 45 46 47 49 50 51 52 53 53 53 54 54 54 56 59 62 64 64 65 65 65 65 66 66 67 68 69 70 72 73 74 75 76 77 78 79 79 78 78 78 78 79 78 78 77 77 77 77 77 78 78
44 45 46 46 46 46 47 48 50 52 55 57 57 55 51 49 49 49 48 43 37 33 32 31 30 28 27 27 27 28 28 29 30 31 33 34 35 35 36 37 39 40 41 41 43 45 46 46 48 49 51 52 53 54 54 54 55 55 57 59 62 64 65 66 66 66 66 67 67 68 69 70 71 73 74 75 76 77 77 78 79 79 79 78 78 78 78 78 77 77 77 77 77 77 77 77 78
44 46 48 48 47 47 48 51 52 53 55 56 57 56 52 50 51 52 50 44 36 30 29 29 29 28 27 28 28 29 30 31 32 33 35 37 37 38 39 41 41 41 42 44 45 46 46 47 49 50 51 53 54 55 55 55 56 58 60 62 64 65 66 66 67 68 68 68 69 70 71 72 74 75 76 77 77 78 79 79 79 79 79 78 78 78 78 77 77 76 76 76 77 77 77 77 77
47 48 49 50 49 48 50 53 54 53 53 54 55 57 53 51 53 53 49 44 37 32 30 29 28 28 29 29 31 32 33 33 35 36 38 39 39 40 41 42 42 43 45 45 46 46 47 49 50 51 53 54 56 56 56 57 59 60 62 64 65 66 67 68 69 69 69 69 70 72 73 75 76 77 77 78 79 79 80 80 80 80 79 79 78 78 77 77 76 76 76 76 76 76 76 76 77
Wind_Direction
83 75 70 62 57 52 52 48 46 43 37 53 66 62 62 65 60 58 56 55 54 57 58 57 58 59 61 61 59 56 54 59 61 63 68 71 70 69 69 69 72 73 72 70 68 66 63 60 55 50 46 43 44 43 43 42 41 40 39 37 37 37 32 21 302 263 254 250 250 252 253 254 257 262 267 273 284 295 297 297 302 306 306 306 306 306 305 304 305 305 304 304 305 305 306 307 308
98 81 74 62 55 50 49 47 42 42 48 55 62 61 58 61 59 55 54 52 51 52 56 56 57 58 59 61 62 59 57 59 60 61 65 69 68 68 68 68 68 70 71 71 69 68 66 64 61 56 50 44 40 36 37 38 39 38 39 36 33 32 31 31 29 17 347 307 283 273 268 263 259 260 265 271 279 285 287 292 302 311 315 317 320 322 325 324 322 319 316 314 312 311 311 311 310
116 88 74 61 52 46 42 41 38 40 51 56 54 59 55 55 57 53 51 47 46 46 51 54 54 56 58 60 63 64 61 61 63 62 65 68 68 70 70 69 70 69 70 72 73 71 70 69 67 64 59 54 48 42 39 38 37 36 38 36 32 29 27 27 25 24 21 13 1 339 301 280 271 268 269 270 272 275 278 285 292 300 309 314 318 321 325 329 329 328 326 322 319 317 316 315 313
140 99 71 57 50 43 37 32 34 36 44 51 44 49 51 48 51 51 47 43 40 38 40 46 52 55 60 62 66 69 68 65 65 67 68 71 74 78 78 77 77 74 70 71 75 77 76 75 73 69 66 63 58 53 49 47 42 36 36 33 29 24 23 25 22 19 17 13 13 10 352 329 310 296 287 281 278 276 277 279 284 290 297 303 308 310 312 318 319 320 321 319 319 318 318 317 315
164 116 61 48 44 37 32 23 30 36 38 43 34 34 43 40 43 47 43 38 35 32 29 35 48 58 65 64 65 69 71 70 69 70 72 74 78 82 87 92 92 91 83 73 73 78 79 79 78 75 71 67 62 59 56 54 51 44 41 36 28 18 11 13 14 12 11 9 7 3 356 352 344 334 323 311 300 292 286 283 285 287 290 293 297 299 300 305 307 309 311 311 312 311 312 312 312
176 113 30 32 33 29 25 17 26 34 33 35 27 21 29 32 34 37 37 33 30 28 23 27 39 56 67 64 65 65 67 70 70 71 74 76 79 83 89 100 112 122 117 114 111 95 89 85 82 84 82 77 69 64 60 59 59 53 49 45 38 30 15 3 357 350 351 356 356 353 349 345 341 337 331 325 319 312 305 299 298 296 295 294 294 293 294 296 298 300 302 303 304 305 305 304 304
192 311 4 15 17 18 18 14 21 28 28 28 23 14 14 18 23 23 26 25 24 22 15 18 26 41 57 61 61 59 60 63 65 67 72 77 82 88 93 102 116 141 159 172 173 178 180 184 196 174 142 111 99 84 69 62 61 54 50 48 42 38 33 20 1 342 335 336 337 336 336 337 336 332 324 319 316 313 311 310 310 309 308 305 301 300 298 297 297 297 297 298 299 299 299 298 298
211 288 337 355 358 2 10 11 15 19 20 20 16 10 3 1 8 9 9 14 18 14 7 5 9 19 30 45 48 45 48 52 53 53 59 71 82 92 97 103 114 132 167 196 201 204 203 204 214 221 230 228 218 214 217 229 53 22 24 23 17 17 27 25 10 352 341 337 333 327 325 325 324 324 322 320 318 316 313 312 313 312 310 308 306 306 305 304 302 300 298 298 298 298 297 297 296
236 286 321 334 339 346 358 6 9 9 11 11 8 4 356 348 346 354 354 360 11 8 359 354 353 2 11 20 26 27 32 35 35 35 38 45 52 68 84 91 101 111 129 205 221 223 221 220 223 227 230 235 239 239 245 246 243 249 259 267 284 301 320 335 338 335 335 341 336 329 324 320 320 319 319 318 317 316 315 314 315 313 310 309 306 303 303 303 302 300 299 298 298 299 299 299 298
250 284 304 317 323 332 345 355 360 0 360 360 359 354 348 339 330 335 342 346 1 2 353 348 343 351 6 3 3 5 8 13 15 16 18 23 24 15 3 351 347 356 6 353 320 271 245 239 239 243 245 245 247 249 255 259 259 259 261 264 268 273 281 285 290 294 300 311 314 317 318 318 319 317 319 318 316 314 312 312 313 312 310 311 308 305 305 304 302 302 301 300 299 299 299 299 299
257 283 295 306 313 323 334 343 350 350 348 349 348 344 339 333 323 319 325 331 344 352 344 340 338 347 359 350 345 347 347 349 353 355 356 1 4 2 350 329 317 313 322 336 346 348 329 285 260 259 264 266 267 269 270 274 277 278 278 278 279 280 282 285 286 288 292 296 298 301 304 308 310 313 316 317 318 315 313 313 311 310 311 310 307 306 307 306 305 305 305 304 303 302 301 300 299
263 279 290 302 310 320 326 333 339 338 338 337 335 334 332 328 319 308 307 316 323 330 330 326 330 341 347 336 332 333 330 330 331 333 334 338 342 344 342 335 325 312 305 307 322 339 346 340 313 282 276 278 280 283 285 291 295 297 297 297 297 297 295 294 294 294 295 296 299 300 301 303 305 308 310 310 312 312 313 314 311 311 313 311 308 308 309 308 307 307 306 305 305 304 302 301 300
268 282 292 300 308 316 321 327 329 328 329 325 324 326 327 324 316 300 293 301 304 306 313 312 315 326 332 320 316 318 315 312 311 310 313 316 320 325 326 326 325 321 314 307 302 304 311 322 323 310 293 288 287 290 294 300 307 312 316 317 318 317 314 312 311 309 309 309 308 307 308 308 307 307 306 306 307 308 309 311 310 310 310 309 308 310 313 312 310 309 308 307 306 305 303 302 300
272 285 293 299 306 311 314 320 319 320 322 316 314 319 322 320 312 297 287 285 288 291 299 302 305 312 316 306 304 303 299 299 297 296 296 299 301 305 309 311 315 316 317 316 314 306 298 294 294 298 296 295 299 302 305 305 309 315 321 326 329 330 329 329 328 328 328 325 322 320 318 314 311 310 309 308 307 308 308 309 309 308 308 309 309 312 313 312 310 309 309 308 308 307 305 304 303
278 286 292 298 302 306 310 313 312 313 315 308 308 313 317 316 309 294 280 274 276 283 290 295 300 305 306 301 299 298 294 291 290 291 292 292 292 292 294 297 300 303 306 309 311 312 309 303 296 291 289 290 293 298 304 306 305 310 318 320 323 326 328 331 332 336 335 332 334 335 332 324 323 321 318 315 313 312 311 311 310 308 308 309 311 312 312 311 309 308 308 307 307 306 306 305 304
281 286 292 295 298 304 307 307 306 307 307 302 304 308 311 312 306 291 274 266 268 277 284 290 299 305 304 300 297 297 295 291 288 287 288 289 289 289 290 289 291 292 293 295 297 301 302 303 301 296 292 288 286 287 293 296 300 307 311 310 310 311 313 318 322 326 326 326 331 333 331 329 330 328 322 321 320 319 318 318 317 314 310 311 313 313 313 312 310 308 307 307 307 306 306 305 304
281 287 291 292 297 303 301 302 303 302 301 300 301 304 308 308 301 287 271 261 261 270 279 286 297 303 306 302 297 295 294 293 291 288 286 286 288 289 290 289 287 285 285 285 285 286 286 288 289 290 290 288 286 284 283 286 291 297 298 299 300 302 303 305 308 311 313 313 315 318 319 319 320 318 315 316 317 317 316 317 319 315 310 311 313 314 316 316 313 311 310 310 308 307 305 304 303
282 287 288 291 297 298 296 299 299 298 298 298 299 301 305 302 294 283 269 262 259 264 275 284 292 298 304 303 298 296 294 292 290 290 288 287 287 288 288 287 286 283 282 282 281 281 280 280 279 278 279 279 281 281 280 280 282 286 288 289 292 294 297 300 303 305 306 305 304 306 307 306 306 306 306 307 308 309 308 308 310 308 306 306 307 309 314 312 309 309 309 309 307 305 304 303 303
283 285 286 293 295 293 294 296 295 296 296 297 298 299 300 296 289 281 267 260 260 262 272 282 289 294 300 301 296 295 295 292 289 287 287 288 289 289 288 287 285 283 282 282 281 281 281 281 281 279 276 274 272 273 273 273 275 277 279 283 286 288 291 295 298 299 300 299 299 299 299 299 299 300 301 303 305 305 306 307 308 308 307 308 308 310 312 308 306 307 307 306 304 303 302 301 301
283 285 288 293 292 292 294 295 294 294 295 296 296 296 296 292 285 280 267 256 258 261 267 276 286 291 296 297 294 294 294 292 289 285 285 286 288 289 289 288 287 285 282 279 279 280 281 281 282 282 281 279 276 272 270 269 268 269 272 275 279 283 286 288 288 289 290 292 294 297 300 301 302 303 305 307 308 308 310 312 313 313 313 313 313 314 314 311 309 309 309 306 304 303 303 301 300
283 285 289 291 290 292 293 293 293 293 293 294 294 293 293 289 283 278 269 258 257 258 260 267 278 285 291 293 292 293 293 291 289 286 285 285 285 285 284 284 285 285 283 280 277 278 280 281 282 282 282 281 280 277 274 270 267 266 266 267 270 275 278 280 282 286 290 294 298 303 306 306 308 310 310 310 311 312 314 316 315 315 314 314 313 313 313 312 311 310 308 307 305 305 304 304 304
282 285 288 289 290 291 292 292 291 291 291 291 291 291 289 287 283 278 271 265 260 256 259 265 270 278 286 289 290 292 292 291 288 287 286 285 285 282 279 277 277 279 280 281 281 279 279 280 280 281 280 280 279 279 277 273 269 266 263 264 267 269 273 279 284 289 294 297 301 304 303 304 307 308 307 307 309 310 312 313 312 311 311 312 312 312 312 311 310 308 308 307 306 306 305 305 305
281 285 288 289 291 292 292 291 290 289 288 288 288 288 287 285 283 279 274 270 266 262 262 267 269 275 281 283 287 289 289 289 288 289 288 288 288 285 280 274 271 272 275 278 280 280 279 279 279 279 279 279 279 278 277 276 275 272 269 267 269 271 276 279 282 288 292 295 298 298 299 302 303 303 304 305 307 308 309 309 308 309 310 310 309 310 310 309 307 307 308 308 307 305 305 305 305
281 285 288 290 292 292 291 290 288 287 286 285 285 285 284 283 282 278 275 273 272 271 270 272 274 275 277 278 281 282 283 284 286 287 288 288 287 285 281 274 269 268 271 274 275 276 276 276 277 277 277 277 277 277 278 278 277 277 275 273 273 276 278 279 282 287 290 292 295 296 297 299 300 302 304 306 308 309 309 309 309 309 309 309 309 309 308 307 306 306 306 306 305 304 304 303 303
282 285 289 290 291 290 289 288 287 286 284 284 283 282 281 281 279 275 275 274 274 276 277 278 279 278 277 277 276 276 276 277 279 282 284 284 283 279 275 272 270 271 275 277 276 275 274 273 273 273 273 274 275 276 275 276 277 278 279 280 281 282 281 282 286 289 290 292 294 294 295 296 299 302 304 305 306 307 308 309 309 308 307 308 309 308 307 307 305 305 304 303 302 302 303 302 302
284 287 290 290 290 289 287 286 285 285 284 283 282 280 279 279 276 273 274 272 272 275 278 280 281 281 280 278 275 273 270 270 273 277 281 282 281 278 273 270 270 274 278 280 280 278 276 275 273 271 270 270 271 270 270 272 274 275 277 281 283 283 283 286 289 289 290 292 294 294 295 298 300 302 302 302 303 303 304 304 305 304 304 304 305 305 306 305 304 303 303 302 301 301 301 300 300
286 289 291 291 290 289 287 286 285 284 283 283 282 280 279 277 275 273 270 269 271 275 277 278 280 280 279 278 276 272 267 265 268 273 277 279 279 277 274 272 271 274 278 278 278 276 275 274 274 272 269 266 264 264 265 267 269 271 274 277 280 281 283 285 287 287 288 290 291 293 294 296 297 298 298 298 298 298 298 299 300 300 300 300 300 300 300 298 299 299 299 299 299 299 299 298 298
287 290 291 291 290 288 288 287 285 283 283 284 281 279 280 277 273 271 269 270 273 274 275 277 278 278 277 277 275 271 265 261 263 268 273 276 276 274 272 270 270 273 275 275 275 274 273 273 272 271 268 265 262 262 262 262 263 265 268 271 273 276 278 281 283 285 286 287 287 287 288 289 290 291 291 291 292 294 295 296 297 297 297 297 296 296 295 293 294 294 295 296 296 297 297 297 297
288 290 291 291 289 288 288 287 285 284 284 284 281 280 279 274 271 272 271 272 273 273 274 275 275 275 275 275 274 271 265 260 261 264 270 276 276 274 270 267 268 268 268 269 271 272 272 272 272 270 268 265 263 262 260 259 260 261 262 264 266 269 271 274 276 278 280 282 283 283 284 284 284 285 285 287 288 291 293 294 296 295 296 296 296 295 294 294 294 293 292 293 294 295 295 296 296
289 290 290 290 288 287 287 285 284 286 287 284 280 279 276 273 272 274 274 273 272 273 274 274 274 273 272 272 272 271 267 263 262 265 270 276 278 276 271 267 265 264 263 263 264 266 268 268 269 269 269 267 264 261 260 259 259 259 260 260 262 264 266 269 271 273 275 277 278 280 282 283 284 285 286 287 288 289 290 291 293 294 295 297 297 296 295 294 293 292 292 292 293 294 294 295 295
289 289 289 288 287 288 287 285 285 287 287 283 280 277 275 273 274 274 274 274 274 273 273 273 272 270 269 270 270 269 268 267 267 269 273 277 278 277 273 268 265 262 260 260 260 262 263 264 265 266 267 266 265 263 260 259 259 259 259 259 259 261 263 267 269 272 274 276 278 280 282 283 284 285 286 287 288 288 288 289 290 290 291 292 293 293 292 291 291 291 291 292 293 294 295 296 296
287 288 287 286 287 287 288 288 288 287 284 281 279 278 276 275 276 275 273 274 275 276 275 273 271 269 267 267 268 268 268 268 270 271 274 275 277 276 273 270 266 262 260 259 259 260 262 263 264 264 263 264 263 262 261 260 260 260 261 262 262 264 266 269 271 274 276 278 280 281 282 283 284 285 285 285 286 287 288 289 288 288 287 287 287 287 288 289 291 292 292 293 294 295 296 296 297
285 283 284 287 289 289 287 286 284 283 282 280 278 277 277 277 276 276 275 275 275 276 275 273 271 269 267 267 266 267 268 268 269 270 272 273 274 273 272 269 267 263 260 258 258 259 261 262 263 263 262 262 263 263 264 264 265 266 268 269 271 272 273 274 276 277 279 281 282 283 284 284 284 285 286 286 287 288 289 289 288 287 287 286 286 286 287 289 290 291 292 293 294 295 296 296 296
281 281 284 287 289 288 287 284 282 282 280 278 275 274 276 278 277 277 277 276 275 275 273 272 272 270 268 267 265 265 266 268 269 269 270 271 271 271 270 268 265 262 259 257 257 259 261 262 263 264 264 265 265 266 268 270 271 273 274 276 277 278 279 281 282 283 284 285 285 286 286 286 286 287 288 289 289 288 288 287 287 287 287 288 288 288 289 290 291 291 291 293 294 295 295 295 295
280 283 285 285 285 284 286 285 283 281 277 274 273 273 274 276 279 280 279 277 275 274 272 271 271 271 269 267 267 266 266 267 269 269 269 270 270 270 268 266 263 260 258 256 256 258 261 262 263 264 265 266 267 268 269 271 274 276 278 279 281 283 284 285 286 286 286 285 286 286 286 286 286 287 287 287 287 286 286 286 287 289 290 291 291 292 292 292 293 293 293 294 295 295 295 296 296
279 283 285 284 283 282 283 284 282 280 276 272 272 273 273 275 279 280 278 276 275 274 274 272 270 271 272 271 269 267 266 267 267 268 269 270 270 269 268 266 263 259 256 255 255 256 259 261 262 263 264 266 268 269 270 272 274 276 279 281 283 284 285 286 285 285 284 285 286 286 286 286 285 285 284 284 285 286 287 288 290 291 293 294 294 295 295 295 295 296 296 296 297 297 297 297 297
278 280 282 284 283 283 282 281 280 278 275 272 271 273 274 276 279 280 278 275 275 275 274 274 273 272 273 273 271 269 268 267 267 268 269 269 269 269 268 266 263 259 255 254 254 256 258 260 261 262 264 267 269 272 274 275 277 278 279 279 280 281 283 284 284 283 283 284 285 285 285 285 284 284 284 285 286 287 288 290 292 293 295 296 297 297 298 298 299 299 299 299 299 298 298 298 297
277 279 281 281 281 281 280 278 278 277 274 273 273 273 274 275 277 280 281 279 277 273 271 273 276 276 274 274 273 271 269 267 267 268 268 269 270 269 267 265 263 260 256 254 255 257 259 261 263 264 266 269 271 274 276 277 279 280 280 279 279 280 281 282 283 283 284 284 285 286 286 286 286 286 287 288 288 289 291 292 294 295 296 297 298 298 299 299 299 300 299 299 299 298 298 298 298
277 279 278 278 278 278 276 275 276 276 274 274 272 271 272 273 276 279 281 281 278 274 271 272 273 275 277 276 274 272 269 267 267 268 268 270 270 268 267 265 263 261 258 256 256 258 260 262 264 265 267 270 272 274 275 277 279 280 280 279 279 280 281 283 284 285 287 287 288 288 288 289 289 290 291 291 292 293 294 295 296 296 297 297 298 298 299 300 300 300 300 299 299 299 299 300 300
275 275 275 275 275 275 274 274 274 274 274 274 271 270 271 273 276 278 279 279 278 276 275 273 272 274 275 275 274 273 270 267 267 268 269 270 270 268 266 265 263 263 261 259 258 259 261 262 263 265 268 270 272 274 277 280 281 282 282 282 282 283 285 286 287 288 289 290 290 290 290 291 292 293 293 293 294 295 295 297 298 298 299 299 300 301 301 301 301 300 300 301 301 300 300 300 300
274 273 274 275 274 274 274 274 273 272 272 272 271 271 270 272 275 276 277 279 279 278 277 275 273 273 273 272 272 272 271 269 268 268 269 270 270 268 266 265 263 262 261 260 260 261 262 263 264 266 268 271 273 276 279 282 284 285 285 285 286 287 288 289 290 291 291 291 291 291 292 293 293 294 294 295 296 297 298 299 300 301 301 302 302 302 301 301 300 301 301 301 300 300 300 300 300
273 273 273 274 274 274 274 274 273 273 271 271 270 271 272 271 274 277 277 276 276 277 277 276 274 273 272 271 270 270 271 270 269 268 269 270 269 267 265 263 260 259 260 261 262 263 263 264 265 267 269 272 273 276 279 283 285 286 286 287 287 288 290 291 292 293 293 293 293 293 293 293 294 295 296 297 298 299 299 300 301 301 302 302 301 300 300 300 300 300 300 299 299 299 300 299 299
272 273 274 274 274 275 274 274 274 273 272 270 268 271 274 273 274 279 278 274 272 272 272 272 272 273 272 271 270 271 271 270 269 269 269 269 268 267 264 260 257 256 257 259 261 262 263 264 265 268 270 272 274 277 280 283 285 285 286 287 288 290 291 292 294 295 294 293 293 293 293 294 295 296 297 298 299 299 299 300 301 301 301 300 299 299 299 299 299 298 298 299 299 299 299 299 299
272 273 274 275 274 273 272 271 271 272 272 271 269 272 276 276 276 277 274 273 274 274 273 270 269 270 271 272 273 273 273 273 272 271 270 269 268 266 262 258 255 255 254 255 257 259 260 262 265 268 271 273 276 278 281 283 284 286 287 289 291 292 293 294 294 294 294 293 293 294 295 296 297 297 298 298 298 299 299 300 301 301 300 299 299 298 298 297 297 298 299 300 300 300 300 300 299
272 272 272 272 273 272 271 269 269 270 271 270 271 276 279 279 281 277 271 270 275 277 276 273 271 270 269 270 272 274 275 275 274 273 271 269 267 264 260 257 255 255 254 254 255 256 259 263 267 270 273 276 278 280 282 284 286 288 290 292 293 294 294 293 293 294 294 295 295 296 297 297 298 298 298 298 298 299 300 300 300 300 299 299 298 297 297 297 298 299 300 300 300 300 300 300 299
270 271 270 270 270 270 271 270 270 270 269 271 275 278 279 280 279 277 274 273 275 276 275 273 273 272 271 271 272 273 273 274 274 273 270 268 266 264 261 259 258 257 257 257 259 261 265 268 271 274 276 278 280 283 285 286 288 290 291 292 292 292 293 294 295 296 297 298 298 298 298 298 298 298 298 298 299 300 300 300 300 299 298 297 297 297 297 298 299 300 300 300 300 300 300 299 298
268 268 268 269 270 270 270 270 271 270 270 274 278 278 279 278 277 277 277 276 275 275 274 272 273 272 273 273 273 272 272 272 273 272 270 268 265 264 263 261 260 260 261 263 266 269 270 272 274 276 278 280 283 285 287 288 289 290 290 291 291 292 293 295 296 298 299 300 300 300 299 298 298 298 299 299 300 300 300 299 299 297 296 296 297 298 298 299 299 299 299 299 299 299 298 298 297
267 268 269 270 270 270 270 270 270 271 274 278 278 277 275 275 277 279 279 279 278 276 274 273 273 273 273 273 273 272 271 271 271 270 267 265 263 262 262 261 262 264 266 267 269 270 271 272 275 277 280 283 285 287 288 289 289 289 290 290 291 293 294 296 298 300 302 302 301 300 299 299 299 300 300 300 300 299 298 297 296 296 296 297 298 298 299 299 299 299 298 298 298 298 297 297 296
268 269 270 270 270 270 269 268 269 272 276 279 279 277 274 273 275 278 280 284 284 282 280 279 278 277 275 274 273 271 270 269 268 266 263 262 262 262 262 263 264 266 266 267 267 269 271 273 276 279 282 284 286 288 289 290 290 290 290 291 293 294 296 298 301 303 303 303 301 300 300 300 300 300 300 299 298 297 296 296 296 296 297 298 298 298 298 298 298 298 298 298 298 297 297 296 295
265 265 266 266 267 268 269 271 273 275 276 277 276 275 273 274 276 278 281 284 284 286 287 285 282 280 278 275 273 271 268 266 264 261 260 260 261 261 263 264 265 264 264 265 267 270 272 273 275 279 282 285 287 290 291 291 291 291 292 293 294 296 299 301 304 304 304 303 301 300 299 299 299 299 298 298 297 296 296 297 297 297 297 298 298 298 298 298 298 298 298 298 297 297 296 296 295
262 263 265 265 266 269 273 276 277 277 277 275 274 272 273 276 279 280 280 280 283 288 289 286 282 279 276 273 271 268 264 261 258 257 257 258 259 261 263 263 263 264 265 267 269 270 271 272 275 279 282 285 288 291 293 293 292 293 293 294 295 298 300 303 304 304 303 302 300 299 298 298 298 298 297 297 297 298 298 298 298 297 297 297 298 298 298 298 298 298 298 298 297 297 296 295 295
264 264 264 266 269 271 273 275 275 277 277 275 274 274 276 280 281 281 281 282 286 288 286 284 280 276 273 270 267 264 260 257 256 256 256 258 259 261 262 262 263 264 266 268 269 269 271 274 277 280 283 285 289 292 293 294 294 294 294 295 296 298 301 302 303 302 301 300 299 298 298 297 297 297 297 298 299 299 299 298 298 298 297 298 298 298 298 298 298 298 298 298 297 297 296 295 295
264 264 265 269 271 271 271 272 274 275 275 274 275 277 279 281 280 280 284 288 289 287 284 281 277 274 273 270 265 260 257 256 256 256 257 258 260 261 262 262 264 266 267 268 269 271 273 276 278 281 283 285 289 292 294 295 295 296 296 296 296 298 300 301 301 301 300 299 298 298 298 297 298 298 299 300 300 300 299 299 298 298 298 298 298 299 299 299 299 299 298 298 297 297 296 296 296
264 265 267 269 270 270 271 273 274 274 275 275 276 277 279 280 280 282 286 288 288 287 284 280 277 275 274 270 264 258 256 256 256 256 257 258 259 260 261 263 265 267 268 269 271 274 276 278 280 282 284 286 289 292 294 295 296 297 297 296 296 298 299 300 301 301 300 299 299 298 298 298 299 300 300 300 300 300 299 299 298 298 298 298 299 299 299 299 299 299 299 298 297 297 297 296 296
265 267 269 269 270 271 272 273 274 275 276 275 276 277 278 280 282 284 285 285 287 287 285 281 277 274 270 266 261 258 256 256 256 256 257 258 259 261 264 266 268 269 270 271 274 276 277 279 281 283 285 287 290 293 294 295 296 296 296 296 297 298 300 301 302 301 300 299 298 298 298 299 300 300 301 300 300 299 299 298 298 298 298 299 299 299 299 299 299 299 298 298 297 297 296 296 295
267 267 267 268 269 271 272 272 272 273 274 275 277 279 280 282 284 284 283 284 285 284 282 280 277 273 268 264 260 259 257 256 256 257 258 259 261 264 267 269 269 270 272 273 275 277 279 281 282 283 285 288 291 294 294 294 295 296 296 297 297 299 301 302 301 300 299 298 297 298 299 300 301 301 301 300 300 299 298 298 298 298 299 299 299 299 299 299 299 298 298 297 297 296 296 295 295
262 261 263 266 270 272 273 271 270 270 272 276 279 280 281 282 282 281 281 283 283 280 277 277 276 274 270 264 261 259 258 258 258 259 259 261 264 265 267 268 269 270 272 273 275 277 280 282 283 285 287 291 293 294 294 295 296 297 297 297 298 300 300 300 300 299 297 297 298 299 301 301 301 301 300 300 299 298 298 298 299 299 300 300 300 299 299 299 298 298 297 297 296 296 296 295 295
259 260 263 267 270 272 273 273 273 274 275 277 278 278 278 279 279 280 282 283 282 278 275 274 274 273 270 267 264 263 262 262 262 262 263 264 265 265 265 267 269 270 271 273 276 280 282 284 286 289 292 294 295 294 294 296 297 297 297 298 298 299 299 299 298 298 297 298 299 301 301 301 301 300 300 299 299 299 299 299 300 300 300 300 299 299 299 298 298 297 297 296 296 296 296 296 297